Previsão horária em Senkino

Hoje, 30 Julho, Sexta-feira

Tempo Temperatura Precipitação Vento Pressão Humidade
00:00 +20°C° 0.4 mm 2 m/s 737 mmHg 83%
01:00 +19°C° 0.4 mm 2 m/s 736 mmHg 87%
02:00 +19°C° 0 mm 2 m/s 736 mmHg 90%
03:00 +19°C° 0.3 mm 2 m/s 736 mmHg 91%
04:00 +19°C° 0.3 mm 2 m/s 736 mmHg 92%
05:00 +19°C° 0.3 mm 2 m/s 736 mmHg 94%
06:00 +21°C° 0.1 mm 3 m/s 736 mmHg 89%
07:00 +22°C° 0.1 mm 3 m/s 736 mmHg 85%
08:00 +23°C° 0.1 mm 4 m/s 736 mmHg 81%
09:00 +25°C° 0 mm 4 m/s 736 mmHg 76%
10:00 +26°C° 0 mm 5 m/s 736 mmHg 72%
11:00 +26°C° 0 mm 5 m/s 736 mmHg 67%
12:00 +27°C° 0 mm 5 m/s 736 mmHg 65%
13:00 +27°C° 0 mm 5 m/s 737 mmHg 62%
14:00 +27°C° 0 mm 6 m/s 737 mmHg 59%
15:00 +27°C° 0 mm 5 m/s 736 mmHg 59%
16:00 +27°C° 0 mm 4 m/s 736 mmHg 59%
17:00 +27°C° 0 mm 4 m/s 736 mmHg 59%
18:00 +25°C° 0 mm 3 m/s 737 mmHg 64%
19:00 +22°C° 0 mm 3 m/s 737 mmHg 68%
20:00 +20°C° 0 mm 3 m/s 737 mmHg 73%
21:00 +20°C° 0 mm 3 m/s 737 mmHg 75%
22:00 +19°C° 0 mm 3 m/s 738 mmHg 76%
23:00 +19°C° 0 mm 3 m/s 738 mmHg 78%

Amanhã, 31 Julho, Sábado

Tempo Temperatura Precipitação Vento Pressão Humidade
00:00 +19°C° 0 mm 3 m/s 738 mmHg 79%
01:00 +18°C° 0 mm 3 m/s 738 mmHg 79%
02:00 +18°C° 0 mm 2 m/s 738 mmHg 80%
03:00 +18°C° 0 mm 3 m/s 738 mmHg 81%
04:00 +17°C° 0 mm 3 m/s 738 mmHg 82%
05:00 +17°C° 0 mm 3 m/s 738 mmHg 83%
06:00 +19°C° 0 mm 3 m/s 738 mmHg 76%
07:00 +21°C° 0 mm 4 m/s 738 mmHg 68%
08:00 +23°C° 0 mm 4 m/s 739 mmHg 60%
09:00 +25°C° 0 mm 5 m/s 739 mmHg 56%
10:00 +26°C° 0 mm 5 m/s 739 mmHg 52%
11:00 +28°C° 0 mm 5 m/s 739 mmHg 48%
12:00 +28°C° 0 mm 6 m/s 739 mmHg 46%
13:00 +28°C° 0 mm 6 m/s 739 mmHg 44%
14:00 +29°C° 0 mm 6 m/s 739 mmHg 42%
15:00 +28°C° 0 mm 5 m/s 739 mmHg 45%
16:00 +28°C° 0 mm 5 m/s 739 mmHg 48%
17:00 +27°C° 0 mm 4 m/s 739 mmHg 51%
18:00 +26°C° 0 mm 3 m/s 739 mmHg 55%
19:00 +24°C° 0 mm 2 m/s 739 mmHg 60%
20:00 +22°C° 0 mm 1 m/s 739 mmHg 64%
21:00 +21°C° 0 mm 2 m/s 739 mmHg 64%
22:00 +20°C° 0 mm 2 m/s 740 mmHg 65%
23:00 +20°C° 0 mm 2 m/s 740 mmHg 65%

Depois de amanhã, 1 Agosto, Domingo

Tempo Temperatura Precipitação Vento Pressão Humidade
00:00 +20°C° 0 mm 2 m/s 740 mmHg 66%
01:00 +19°C° 0 mm 2 m/s 740 mmHg 68%
02:00 +19°C° 0 mm 3 m/s 740 mmHg 69%
03:00 +19°C° 0 mm 3 m/s 740 mmHg 71%
04:00 +19°C° 0 mm 3 m/s 740 mmHg 73%
05:00 +19°C° 0 mm 3 m/s 740 mmHg 75%
06:00 +21°C° 0 mm 3 m/s 740 mmHg 69%
07:00 +23°C° 0 mm 4 m/s 740 mmHg 64%
08:00 +26°C° 0 mm 4 m/s 740 mmHg 58%
09:00 +28°C° 0 mm 5 m/s 740 mmHg 53%
10:00 +29°C° 0 mm 6 m/s 740 mmHg 48%
11:00 +32°C° 0 mm 6 m/s 740 mmHg 42%
12:00 +32°C° 0 mm 6 m/s 740 mmHg 41%
13:00 +33°C° 0 mm 6 m/s 739 mmHg 40%
14:00 +33°C° 0 mm 6 m/s 739 mmHg 38%
15:00 +32°C° 0 mm 5 m/s 739 mmHg 42%
16:00 +32°C° 0 mm 4 m/s 739 mmHg 47%
17:00 +30°C° 0 mm 3 m/s 738 mmHg 51%
18:00 +28°C° 0 mm 3 m/s 738 mmHg 57%
19:00 +26°C° 0 mm 2 m/s 738 mmHg 63%
20:00 +25°C° 0 mm 2 m/s 738 mmHg 69%
21:00 +24°C° 0 mm 2 m/s 738 mmHg 74%
22:00 +23°C° 0 mm 1 m/s 738 mmHg 79%
23:00 +22°C° 0 mm 1 m/s 739 mmHg 84%

2 Agosto, Segunda-feira

Tempo Temperatura Precipitação Vento Pressão Humidade
00:00 +22°C° 0.6 mm 1 m/s 738 mmHg 86%
01:00 +21°C° 0.6 mm 1 m/s 738 mmHg 88%
02:00 +21°C° 0.6 mm 1 m/s 738 mmHg 90%
03:00 +21°C° 0.1 mm 1 m/s 738 mmHg 89%
04:00 +20°C° 0.1 mm 2 m/s 738 mmHg 89%
05:00 +20°C° 0.1 mm 2 m/s 737 mmHg 88%
06:00 +22°C° 0.3 mm 3 m/s 738 mmHg 82%
07:00 +25°C° 0.3 mm 4 m/s 738 mmHg 77%
08:00 +26°C° 0.3 mm 4 m/s 738 mmHg 71%
09:00 +27°C° 0 mm 5 m/s 737 mmHg 69%
10:00 +27°C° 0 mm 5 m/s 737 mmHg 66%
11:00 +28°C° 0 mm 5 m/s 737 mmHg 63%
12:00 +29°C° 0.1 mm 6 m/s 736 mmHg 58%
13:00 +30°C° 0.1 mm 6 m/s 736 mmHg 53%
14:00 +32°C° 0.1 mm 7 m/s 736 mmHg 48%
15:00 +32°C° 0 mm 7 m/s 736 mmHg 50%
16:00 +32°C° 0 mm 7 m/s 735 mmHg 52%
17:00 +32°C° 0 mm 6 m/s 735 mmHg 55%
18:00 +27°C° 0.1 mm 5 m/s 735 mmHg 64%
19:00 +22°C° 0.1 mm 3 m/s 735 mmHg 74%
20:00 +20°C° 0.1 mm 1 m/s 735 mmHg 84%
21:00 +19°C° 0.1 mm 2 m/s 736 mmHg 86%
22:00 +18°C° 0.1 mm 2 m/s 736 mmHg 89%
23:00 +18°C° 0.1 mm 3 m/s 736 mmHg 92%

3 Agosto, Terça-feira

Tempo Temperatura Precipitação Vento Pressão Humidade
00:00 +18°C° 0.3 mm 3 m/s 737 mmHg 92%
01:00 +18°C° 0.3 mm 3 m/s 737 mmHg 93%
02:00 +18°C° 0.3 mm 4 m/s 737 mmHg 94%
03:00 +17°C° 0 mm 4 m/s 737 mmHg 94%
04:00 +17°C° 0 mm 4 m/s 737 mmHg 95%
05:00 +15°C° 0 mm 4 m/s 738 mmHg 96%
06:00 +17°C° 0 mm 4 m/s 738 mmHg 88%
07:00 +18°C° 0 mm 4 m/s 739 mmHg 80%
08:00 +20°C° 0 mm 4 m/s 739 mmHg 73%
09:00 +21°C° 0 mm 4 m/s 739 mmHg 67%
10:00 +22°C° 0 mm 4 m/s 740 mmHg 60%
11:00 +25°C° 0 mm 4 m/s 740 mmHg 54%
12:00 +25°C° 0.2 mm 4 m/s 740 mmHg 53%
13:00 +25°C° 0.2 mm 4 m/s 740 mmHg 52%
14:00 +25°C° 0.2 mm 4 m/s 740 mmHg 51%
15:00 +25°C° 0.1 mm 4 m/s 740 mmHg 55%
16:00 +23°C° 0.1 mm 4 m/s 740 mmHg 59%
17:00 +22°C° 0.1 mm 4 m/s 741 mmHg 64%
18:00 +21°C° 0 mm 3 m/s 741 mmHg 68%
19:00 +19°C° 0 mm 3 m/s 741 mmHg 72%
20:00 +18°C° 0 mm 3 m/s 742 mmHg 77%
21:00 +17°C° 0 mm 2 m/s 742 mmHg 78%
22:00 +16°C° 0 mm 2 m/s 742 mmHg 78%
23:00 +16°C° 0 mm 2 m/s 742 mmHg 79%

4 Agosto, Quarta-feira

Tempo Temperatura Precipitação Vento Pressão Humidade
00:00 +15°C° 0 mm 2 m/s 742 mmHg 80%
01:00 +15°C° 0 mm 2 m/s 742 mmHg 81%
02:00 +15°C° 0 mm 2 m/s 743 mmHg 82%
03:00 +15°C° 0 mm 2 m/s 743 mmHg 83%
04:00 +15°C° 0 mm 2 m/s 743 mmHg 84%
05:00 +15°C° 0 mm 2 m/s 743 mmHg 85%
06:00 +18°C° 0 mm 1 m/s 743 mmHg 77%
07:00 +20°C° 0 mm 1 m/s 744 mmHg 69%
08:00 +22°C° 0 mm 1 m/s 744 mmHg 61%
09:00 +23°C° 0 mm 1 m/s 744 mmHg 56%
10:00 +24°C° 0 mm 2 m/s 744 mmHg 50%
11:00 +25°C° 0 mm 2 m/s 744 mmHg 44%
12:00 +25°C° 0 mm 2 m/s 744 mmHg 45%
13:00 +25°C° 0 mm 2 m/s 744 mmHg 46%
14:00 +25°C° 0 mm 2 m/s 744 mmHg 47%
15:00 +24°C° 0 mm 2 m/s 744 mmHg 50%
16:00 +23°C° 0 mm 2 m/s 744 mmHg 53%
17:00 +23°C° 0 mm 1 m/s 744 mmHg 57%
18:00 +21°C° 0 mm 2 m/s 744 mmHg 59%
19:00 +20°C° 0 mm 2 m/s 744 mmHg 61%
20:00 +19°C° 0 mm 2 m/s 744 mmHg 63%
21:00 +19°C° 0 mm 2 m/s 744 mmHg 62%
22:00 +19°C° 0 mm 2 m/s 744 mmHg 61%
23:00 +20°C° 0 mm 1 m/s 744 mmHg 60%
Mostrar mais

Necessitamos do seu Consentimento

A Meteoprog e os seus Fornecedores de Serviços podem armazenar e aceder a dados pessoais como cookies, identificadores do dispositivo ou outras tecnologias semelhantes existentes no seu dispositivo e processar estes dados para personalizar conteúdos e anúncios, assim como funcionalidades nas redes sociais e análise de tráfego.

  • Armazenar e/ou aceder a informações no seu dispositivo

    Os cookies, identificadores do dispositivo ou outras informações podem ser armazenados ou acedidos no seu dispositivo, para os fins acima indicados.

  • Anúncios e conteúdos personalizados, medição de anúncios e conteúdos, dados sobre o público-alvo e desenvolvimento de produtos

    Os anúncios e os conteúdos podem ser personalizados com base num perfil. Podem ser adicionados dados adicionais para uma maior personalização dos anúncios e dos conteúdos. A eficácia dos anúncios e dos conteúdos pode ser medida. Podem ser obtidas informações sobre o público que visualizou os anúncios e os conteúdos. Estes dados podem ser usados para desenvolver ou melhorar sistemas, softwares ou a experiência do utilizador.

Ao clicar em "Eu concordo”, permitirá o uso de cookies, identificadores do dispositivo e web beacons mencionados ou outras tecnologias semelhantes. As configurações do navegador do seu dispositivo podem ser alteradas.

Para certos fins, podem ser invocados interesses legítimos ao invés de consentimento. Pode ler mais informação sobre este assunto na nossa Política de Privacidade e Cookies.